Regional Weather Roundup
Issued by NWS

Home | Current Version | Previous Version | Text Only | Print | Product List | Glossary On
Versions: 1 2 3 4 5 6 7 8 9 10 11 12 13 14 15 16 17 18 19 20 21 22 23 24 25 26 27
000
ASUS42 KTBW 031016
RWRFL
FLORIDA REGIONAL WEATHER ROUNDUP
NATIONAL WEATHER SERVICE TAMPA BAY RUSKIN FL
600 AM EDT TUE AUG 03 2021

NOTE: "FAIR" INDICATES FEW OR NO CLOUDS BELOW 12,000 FEET WITH NO
SIGNIFICANT WEATHER AND/OR OBSTRUCTIONS TO VISIBILITY.

FLZ001>010-012>015-112-114-115-031100-
PANHANDLE FLORIDA

CITY           SKY/WX    TMP DP  RH WIND       PRES   REMARKS
PENSACOLA      MOCLDY    75  73  93 N5        29.91S
CRESTVIEW      CLOUDY    74  72  93 N3        29.95R
DUKE FIELD     CLOUDY    72  71  96 N3        29.93R
VALPARAISO     PTCLDY    73  72  95 N6        29.90F
MARY ESTHER    PTCLDY    73  72  95 N3        29.91R
TRI COUNTY     CLOUDY    75  72  90 CALM      29.93S
PANAMA CITY    CLOUDY    75  74  96 CALM      29.90S
TYNDALL AFB    MOCLDY    76  74  93 CALM      29.90S
APALACHICOLA   MOCLDY    75  75 100 CALM      29.90F

STATION/POSITION SKY/WX   TEMP    WIND        PRES    WAVE   SWELL
                          AIR SEA DIR/SP/G            HT/PER HT/PER
                          (F)     (DEG/KT/KT) (MB)    (FT/S) (FT/S)
30.1N   87.6W              83 87  280/  4/  8   N/A     1/ 9   2/ 9
29.2N   88.2W              76     350/  8/ 16 1014.4
28.8N   86.0W              83 86  260/ 16/ 19 1013.4F   4/ 5
PANAMA CITY BEAC           82 82  240/  6/  8 1013.1S
TOWER C                    82     250/ 18/ 19 1012.9F
28.5N   84.5W              83     240/ 17/ 19 1012.5F   4/ 5

$$
FLZ011-016>038-118-127-128-134-139-239-031100-
NORTH FLORIDA

CITY           SKY/WX    TMP DP  RH WIND       PRES   REMARKS
MARIANNA       CLOUDY    74  73  97 NW3       29.91S
TALLAHASSEE    CLOUDY    75  74  96 SW3       29.91S
LIVE OAK       CLOUDY    73  73 100 CALM      29.91F
CROSS CITY     LGT RAIN  75  74  98 S6        29.94S
LAKE CITY      LGT RAIN  72  72 100 SW7       29.93F
GAINESVILLE    RAIN      74  73  97 S12G21    29.97F FOG
WILLISTON      LGT RAIN  73  73  98 S9        29.97S
PALATKA        LGT RAIN  70  70 100 SW9       29.96R
MAYPORT NAS    LGT RAIN  77  77 100 SW9       29.92S
JACKSONVILLE   MOCLDY    74  73  97 S8        29.91S
JAX NAS        CLOUDY    75  73  93 S13       29.93F
JAX CECIL      CLOUDY    73  73 100 S10       29.93S
FERNANDINA BEA FAIR      75 N/A N/A S9        29.93R
ST AUGUSTINE   LGT RAIN  75  74  96 SW5       29.96R
PALM COAST     CLOUDY   N/A N/A N/A SW6       29.96

STATION/POSITION SKY/WX   TEMP    WIND        PRES    WAVE   SWELL
                          AIR SEA DIR/SP/G            HT/PER HT/PER
                          (F)     (DEG/KT/KT) (MB)    (FT/S) (FT/S)
SHELL POINT      NOT AVBL
KEATON BEACH               81     200/  9/ 10 1013.0R
CEDAR KEY                  78     190/  8/ 10 1014.2F
FERNANDINA                 81 84  180/  3/  9 1013.2S
30.7N   81.3W              79 83                N/A     2/ 4
MAYPORT                    76 84  200/  8/ 12 1013.6F
31.4N   80.9W              80 84  230/ 12/ 14 1012.6R   3/ 5   2/ 7
ST AUGUSTINE               75 82  210/  5/  6 1014.4R

$$
FLZ040-043>046-052-053-057-058-063-144-031100-
INTERIOR CENTRAL FLORIDA

CITY           SKY/WX    TMP DP  RH WIND       PRES   REMARKS
OCALA          RAIN      74  74 100 S9        29.99F
LEESBURG       RAIN      76  73  91 W10G18    30.00R
SANFORD        CLOUDY    76  74  93 SW5       29.97S
ORLANDO EXEC   CLOUDY    77  74  90 SW6       29.98R
ORLANDO INTL   CLOUDY    77  74  90 SW5       29.98R
KISSIMMEE      CLOUDY   N/A N/A N/A CALM      29.99S
WINTER HAVEN   MOCLDY    75  72  90 SW5       29.99S
LAKELAND       MOCLDY    73  72  94 CALM      29.99R
BARTOW         FAIR      73  72  94 CALM      29.99S
SEBRING        FAIR      76  73  92 SW5       29.99R
OKEECHOBEE     PTCLDY   N/A N/A N/A MISG      29.99R

$$
FLZ041-047-054-059-064-141-147-031100-
EAST CENTRAL FLORIDA

CITY           SKY/WX    TMP DP  RH WIND       PRES   REMARKS
DAYTONA BEACH  LGT RAIN  76  73  91 SW5       29.96S
DELAND         LGT RAIN  75  74  97 SW5       29.98S
JFK SPACE CTR  MOCLDY    76  73  92 SW5       29.97R
CAPE CANAVERAL MOCLDY    76  73  90 SW5       29.98R
PATRICK AFB    MOCLDY    77  77  99 S9        29.97R
MELBOURNE      MOCLDY    76  74  93 S6        29.98R
VERO BEACH     PTCLDY    75  75 100 S5        29.99R
FT PIERCE      PTCLDY    77  75  93 SE5       29.99R
STUART         PTCLDY    79  75  89 CALM      30.00R

STATION/POSITION SKY/WX   TEMP    WIND        PRES    WAVE   SWELL
                          AIR SEA DIR/SP/G            HT/PER HT/PER
                          (F)     (DEG/KT/KT) (MB)    (FT/S) (FT/S)
28.5N   80.2W              80     200/ 12/ 14 1014.7
28.9N   78.5W              82     170/ 16/ 17 1015.6F
TRIDENT PIER               78 83  200/  9/ 11   N/A
28.4N   80.5W                 80                N/A     2/ 4
27.5N   80.2W                 80                N/A     1/ 3

$$
FLZ050-056-061-142-242-148-248-149-249-151-251-155-255-
160-260-031100-
WEST CENTRAL FLORIDA

CITY           SKY/WX    TMP DP  RH WIND       PRES   REMARKS
CRYSTAL RIVER    N/A     73  73 100 CALM      29.99S
INVERNESS      HVY RAIN  73  73 100 S3        30.00F
BROOKSVILLE    HVY RAIN  74  73  97 NW7       30.02R VSB 1
CLEARWATER AIR MOCLDY    79  75  89 CALM      29.98R
ST PETE CLEARW LGT RAIN  81  76  84 W7        29.97R
TAMPA INTL     CLOUDY    84  77  79 NW12      29.99R
TAMPA EXEC     LGT RAIN  77  77 100 CALM      29.99R
PLANT CITY     MOCLDY    75  75 100 CALM      30.01R
MACDILL AFB    CLOUDY    82  72  69 NW3       29.95R
PETER O KNIGHT CLOUDY    79  77  94 NE6       29.98R
ST PETERSBURG  MOCLDY    81  73  76 CALM      29.96R THUNDER
SARASOTA       PTCLDY    85  75  72 SW14      29.95R
VENICE         MOCLDY    84  75  74 SW12      29.98R

STATION/POSITION SKY/WX   TEMP    WIND        PRES    WAVE   SWELL
                          AIR SEA DIR/SP/G            HT/PER HT/PER
                          (F)     (DEG/KT/KT) (MB)    (FT/S) (FT/S)
27.3N   84.3W                 84                N/A     3/ 4
CLEARWATER BEACH           84 90  240/ 14/ 17 1015.0R
MIDDLE TAMPA BAY           85     240/ 14/ 16   N/A
VENICE                     85 89  230/ 12/ 14 1014.5R

$$
FLZ066-069-070-075>078-162-262-165-265-031100-
SOUTHWEST FLORIDA AND KEYS

CITY           SKY/WX    TMP DP  RH WIND       PRES   REMARKS
PUNTA GORDA    PTCLDY    79  77  94 CALM      29.99R
FT MYERS       CLEAR     80  76  87 CALM      29.96S
SOUTHWEST INTL PTCLDY    79  74  84 CALM      29.97S
NAPLES         MOCLDY    84  77  79 SW8       29.97S
IMMOKALEE      FAIR      75  73  94 CALM      29.97S
MARATHON       PTCLDY    83  74  74 SW8       29.99R
KEY WEST NAS   CLEAR     86  74  67 S12       29.99S
KEY WEST INTL  CLEAR     84  75  74 S8        29.99S

STATION/POSITION SKY/WX   TEMP    WIND        PRES    WAVE   SWELL
                          AIR SEA DIR/SP/G            HT/PER HT/PER
                          (F)     (DEG/KT/KT) (MB)    (FT/S) (FT/S)
NAPLES                     92 91              1015.6F
26.0N   85.6W              85 87  230/ 10/ 14 1013.8R   2/ 7   2/ 7
DRY TORTUGAS     NOT AVBL
SAND KEY                   83     180/  9/ 11 1015.9R
SOMBRERO KEY                      200/ 11/ 13 1014.8R
LONG KEY                                      1015.1R

$$
FLZ067-068-071>074-168-172>174-031100-
SOUTHEAST FLORIDA

CITY           SKY/WX    TMP DP  RH WIND       PRES   REMARKS
W PALM BEACH   PTCLDY    81  77  88 S6        30.00R
FT LAUDER-EXEC PTCLDY    82  77  84 CALM      29.99R
FT LAUDERDALE  MOCLDY    81  77  89 CALM      29.98S
POMPANO BEACH  PTCLDY    81  75  82 SW5       29.99R
PEMBROKE PINES PTCLDY    80  75  84 CALM      30.00S
OPA LOCKA      PTCLDY    81  75  82 S3        30.00R
MIAMI          MOCLDY    82  77  84 S5        29.99R
WEST KENDALL   PTCLDY    82  76  81 S3        30.00R
HOMESTEAD      CLOUDY    81  76  85 S3        29.99R

STATION/POSITION SKY/WX   TEMP    WIND        PRES    WAVE   SWELL
                          AIR SEA DIR/SP/G            HT/PER HT/PER
                          (F)     (DEG/KT/KT) (MB)    (FT/S) (FT/S)
VIRGINIA KEY               85 91  160/  9/ 14 1016.0S
LAKE WORTH                 82 86  210/  5/  7 1014.9R
FOWEY ROCKS                84 86  170/ 17/ 18 1015.9R
SETTLEMENT POINT           83     180/ 11/ 14 1015.9S

$$




USA.gov is the U.S. government's official web portal to all federal, state and local government web resources and services.